{"data":{"norad_id":57860,"epoch":"2026-09-20T22:35:56.808672Z","epoch_age_seconds":96464,"freshness":"FRESH","line1":"1 57860U 23141W   26263.94162973 -.00000088  00000+0  89389-5 0  9995","line2":"2 57860  53.1604  95.6588 0001178  88.7602 271.3534 15.31700827170249","mean_motion":15.31700827,"eccentricity":0.0001178,"inclination_deg":53.1604,"raan_deg":95.6588,"arg_perigee_deg":88.7602,"mean_anomaly_deg":271.3534,"bstar":8.9389e-6,"rev_number":17024,"period_min":94.013137201238,"perigee_km":469.93073256316,"apogee_km":471.54432740242,"semimajor_km":6848.8745299828,"source":"CELESTRAK","updated_at":"2026-09-21T09:00:33.715362Z"}}